Location: Chicago
(41.8500°N, 87.6500°W)
Time: 18:25:45
(UTC-06:00)

ISS - Visible Passes

Search period start: 10 February 2016 00:00
Search period end: 20 February 2016 00:00
Orbit: 399 x 408 km, 51.6° (Epoch: 10 February)

Date Brightness Start Highest point End Pass type
(mag) Time Alt. Az. Time Alt. Az. Time Alt. Az.
10 Feb -0.7 19:16:50 10° NNW 19:17:48 14° NNW 19:17:48 14° NNW visible
11 Feb -1.1 18:24:03 10° NW 18:25:59 15° N 18:27:17 12° NNE visible
12 Feb -1.2 19:07:49 10° NW 19:09:24 18° N 19:09:24 18° N visible
13 Feb -1.3 18:15:10 10° NNW 18:17:22 17° N 18:18:54 13° NE visible
13 Feb -0.1 19:51:13 10° NW 19:51:32 12° NW 19:51:32 12° NW visible
14 Feb -2.0 18:58:35 10° NW 19:01:04 29° N 19:01:04 29° N visible
15 Feb -1.8 18:05:57 10° NW 18:08:34 22° NNE 18:10:38 13° ENE visible
15 Feb -0.8 19:42:04 10° WNW 19:43:17 21° WNW 19:43:17 21° WNW visible
16 Feb -3.3 18:49:17 10° NW 18:52:29 57° NNE 18:52:56 51° ENE visible
17 Feb -2.5 17:56:33 10° NW 17:59:34 34° NNE 18:02:34 10° E visible
17 Feb -1.4 19:33:03 10° WNW 19:35:19 28° WSW 19:35:19 28° WSW visible
18 Feb -3.0 18:40:00 10° WNW 18:43:12 62° SW 18:45:12 21° SE visible
19 Feb -0.5 19:24:38 10° W 19:26:23 14° SW 19:27:55 11° SSW visible
